ONEWEB-0137

Last updated on Mon Jan 18 2021 00:02:03 GMT+0000 (Coordinated Universal Time)

1 47283U 20100AB 21017.58334491 -.01421090 00000-0 -12736+0 0 9992 2 47283 87.3860 29.1618 0011959 145.6368 173.8366 14.99220061 1811

Satellite not in orbit